Shizka — DSQL2 — position and weather

sailwx.info

Track history (hours):
 
Tides and Currents Weather Stations Pressure Air Temp Water Temp Dewpoint Dewpoint Depression Visibility Wind Speed Wind Dir Waves Ship Positions

Shizka

Last reported at 2018-Feb-23 11:56 UTC. Time now 2018-Feb-23 12:28 UTC.
Position N 33°54' E 131°13'.

Length 74 m; draft 5 m.

Type: Cargo ship. MMSI: 441613000.

Date/timePositionNaut miles runAvg speedWind from/ knotsBaromVisibWave heightAir tempDewpointWater temp
2018-Feb-23 11:56N 33°54' E 131°13'0 0.0
2018-Feb-23 11:29N 33°54' E 131°13'0 0.0
2018-Feb-23 10:59N 33°54' E 131°13'0 0.0
2018-Feb-23 10:29N 33°54' E 131°13'0 0.0
2018-Feb-23 09:59N 33°54' E 131°13'0 0.0
2018-Feb-23 09:26N 33°54' E 131°13'0 0.0
2018-Feb-23 08:59N 33°54' E 131°13'0 0.1
2018-Feb-23 08:30N 33°54' E 131°13'3 6.7
2018-Feb-23 08:00N 33°55' E 131°09'5 9.4
2018-Feb-23 07:31N 33°57' E 131°04'4 8.7
2018-Feb-23 07:01N 33°58' E 130°59'4 7.5
2018-Feb-23 06:31N 33°56' E 130°56'2 4.7
2018-Feb-23 06:00N 33°55' E 130°53'4 7.0
2018-Feb-23 05:30N 33°58' E 130°53'2 3.3
2018-Feb-23 05:00N 33°59' E 130°51'4 7.5
2018-Feb-23 04:31N 33°58' E 130°46'4 8.9
2018-Feb-23 04:00N 33°57' E 130°41'5 9.4
2018-Feb-23 03:30N 33°57' E 130°35'5 9.1
2018-Feb-23 03:00N 33°56' E 130°30'5 9.0
2018-Feb-23 02:30N 33°56' E 130°25'4 9.0
2018-Feb-23 02:00N 33°54' E 130°20'5 9.1
2018-Feb-23 01:30N 33°52' E 130°15'5 9.0
2018-Feb-23 01:00N 33°50' E 130°10'4 8.9
2018-Feb-23 00:30N 33°48' E 130°05'4 8.9
2018-Feb-23 00:00N 33°45' E 130°01'  
2018-Feb-16 04:17N 34°27' E 130°09'3 8.4
2018-Feb-16 03:59N 34°25' E 130°12'4 8.4
2018-Feb-16 03:30N 34°23' E 130°16'4 8.4
2018-Feb-16 03:00N 34°20' E 130°19'4 8.4
2018-Feb-16 02:30N 34°17' E 130°23'4 8.4
2018-Feb-16 02:00N 34°15' E 130°27'4 8.4
2018-Feb-16 01:30N 34°12' E 130°31'4 8.3
2018-Feb-16 01:00N 34°10' E 130°35'4 8.0
2018-Feb-16 00:30N 34°07' E 130°39'4 8.3
2018-Feb-16 00:00N 34°05' E 130°43'4 8.4
2018-Feb-15 23:30N 34°02' E 130°47'4 8.4
2018-Feb-15 23:00N 33°59' E 130°51'4 8.8
2018-Feb-15 22:30N 33°55' E 130°53'3 6.2
2018-Feb-15 22:00N 33°57' E 130°57'4 7.4
2018-Feb-15 21:30N 33°59' E 131°00'4 8.3
2018-Feb-15 21:00N 33°56' E 131°04'3 6.3
2018-Feb-15 20:30N 33°53' E 131°06'0 0.0
2018-Feb-15 19:59N 33°53' E 131°06'0 0.0
2018-Feb-15 19:30N 33°53' E 131°06'0 0.1
2018-Feb-15 19:00N 33°53' E 131°06'0 0.0
2018-Feb-15 18:30N 33°53' E 131°06'0 0.0
2018-Feb-15 18:00N 33°53' E 131°06'2 3.7
2018-Feb-15 17:30N 33°52' E 131°08'4 7.9
2018-Feb-15 17:00N 33°52' E 131°13'4 8.0
2018-Feb-15 16:30N 33°51' E 131°18'4 8.2
2018-Feb-15 16:00N 33°50' E 131°23'4 7.9
2018-Feb-15 15:30N 33°49' E 131°27'4 7.9
2018-Feb-15 15:00N 33°49' E 131°32'4 7.8
2018-Feb-15 14:30N 33°48' E 131°37'4 7.9
2018-Feb-15 14:00N 33°48' E 131°41'4 8.0
2018-Feb-15 13:30N 33°47' E 131°46'4 8.2
2018-Feb-15 13:00N 33°46' E 131°51'5 8.3
2018-Feb-15 12:26N 33°46' E 131°57'4 8.2
2018-Feb-15 11:59N 33°46' E 132°01'4 7.9
2018-Feb-15 11:28N 33°47' E 132°06'5 8.1
2018-Feb-15 10:53N 33°49' E 132°11'4 8.1
2018-Feb-15 10:27N 33°50' E 132°15'4 8.0
2018-Feb-15 09:58N 33°50' E 132°19'10 7.8
2018-Feb-15 08:37N 33°53' E 132°32'1 8.7
2018-Feb-15 08:29N 33°53' E 132°33'5 8.9
2018-Feb-15 07:59N 33°55' E 132°38'4 9.3
2018-Feb-15 07:30N 33°58' E 132°42'84 8.6
2018-Feb-14 21:40N 34°22' E 134°20'2 9.3
2018-Feb-14 21:30N 34°22' E 134°21'5 9.1
2018-Feb-14 21:00N 34°20' E 134°26'5 9.0
2018-Feb-14 20:30N 34°18' E 134°31'5 9.2
2018-Feb-14 20:01N 34°16' E 134°36'5 9.7
2018-Feb-14 19:30N 34°13' E 134°40'5 9.2
2018-Feb-14 19:00N 34°09' E 134°44'4 8.6
2018-Feb-14 18:30N 34°06' E 134°47'4 8.5
2018-Feb-14 18:00N 34°02' E 134°50'4 8.5
2018-Feb-14 17:30N 33°59' E 134°54'4 8.3
2018-Feb-14 17:00N 33°56' E 134°57'4 8.5
2018-Feb-14 16:30N 33°53' E 135°00'5 8.2
2018-Feb-14 15:57N 33°50' E 135°04'163 6.4
2018-Feb-13 14:41N 34°33' E 138°14'1 6.4
2018-Feb-13 14:28N 34°34' E 138°15'4 6.8
2018-Feb-13 13:55N 34°34' E 138°20'4 6.8
2018-Feb-13 13:20N 34°34' E 138°24'2 6.6
2018-Feb-13 13:00N 34°34' E 138°27'4 6.0
2018-Feb-13 12:16N 34°35' E 138°33'2 5.8
2018-Feb-13 12:00N 34°34' E 138°34'  
Track history (hours):
 
Tides and Currents Weather Stations Pressure Air Temp Water Temp Dewpoint Dewpoint Depression Visibility Wind Speed Wind Dir Waves Ship Positions

Shizka

Last reported at 2018-Feb-23 11:56 UTC. Time now 2018-Feb-23 12:28 UTC.
Position N 33°54' E 131°13'.

Length 74 m; draft 5 m.

Type: Cargo ship. MMSI: 441613000.

Date/timePositionNaut miles runAvg speedWind from/ knotsBaromVisibWave heightAir tempDewpointWater temp
2018-Feb-23 11:56N 33°54' E 131°13'0 0.0
2018-Feb-23 11:29N 33°54' E 131°13'0 0.0
2018-Feb-23 10:59N 33°54' E 131°13'0 0.0
2018-Feb-23 10:29N 33°54' E 131°13'0 0.0
2018-Feb-23 09:59N 33°54' E 131°13'0 0.0
2018-Feb-23 09:26N 33°54' E 131°13'0 0.0
2018-Feb-23 08:59N 33°54' E 131°13'0 0.1
2018-Feb-23 08:30N 33°54' E 131°13'3 6.7
2018-Feb-23 08:00N 33°55' E 131°09'5 9.4
2018-Feb-23 07:31N 33°57' E 131°04'4 8.7
2018-Feb-23 07:01N 33°58' E 130°59'4 7.5
2018-Feb-23 06:31N 33°56' E 130°56'2 4.7
2018-Feb-23 06:00N 33°55' E 130°53'4 7.0
2018-Feb-23 05:30N 33°58' E 130°53'2 3.3
2018-Feb-23 05:00N 33°59' E 130°51'4 7.5
2018-Feb-23 04:31N 33°58' E 130°46'4 8.9
2018-Feb-23 04:00N 33°57' E 130°41'5 9.4
2018-Feb-23 03:30N 33°57' E 130°35'5 9.1
2018-Feb-23 03:00N 33°56' E 130°30'5 9.0
2018-Feb-23 02:30N 33°56' E 130°25'4 9.0
2018-Feb-23 02:00N 33°54' E 130°20'5 9.1
2018-Feb-23 01:30N 33°52' E 130°15'5 9.0
2018-Feb-23 01:00N 33°50' E 130°10'4 8.9
2018-Feb-23 00:30N 33°48' E 130°05'4 8.9
2018-Feb-23 00:00N 33°45' E 130°01'  
2018-Feb-16 04:17N 34°27' E 130°09'3 8.4
2018-Feb-16 03:59N 34°25' E 130°12'4 8.4
2018-Feb-16 03:30N 34°23' E 130°16'4 8.4
2018-Feb-16 03:00N 34°20' E 130°19'4 8.4
2018-Feb-16 02:30N 34°17' E 130°23'4 8.4
2018-Feb-16 02:00N 34°15' E 130°27'4 8.4
2018-Feb-16 01:30N 34°12' E 130°31'4 8.3
2018-Feb-16 01:00N 34°10' E 130°35'4 8.0
2018-Feb-16 00:30N 34°07' E 130°39'4 8.3
2018-Feb-16 00:00N 34°05' E 130°43'4 8.4
2018-Feb-15 23:30N 34°02' E 130°47'4 8.4
2018-Feb-15 23:00N 33°59' E 130°51'4 8.8
2018-Feb-15 22:30N 33°55' E 130°53'3 6.2
2018-Feb-15 22:00N 33°57' E 130°57'4 7.4
2018-Feb-15 21:30N 33°59' E 131°00'4 8.3
2018-Feb-15 21:00N 33°56' E 131°04'3 6.3
2018-Feb-15 20:30N 33°53' E 131°06'0 0.0
2018-Feb-15 19:59N 33°53' E 131°06'0 0.0
2018-Feb-15 19:30N 33°53' E 131°06'0 0.1
2018-Feb-15 19:00N 33°53' E 131°06'0 0.0
2018-Feb-15 18:30N 33°53' E 131°06'0 0.0
2018-Feb-15 18:00N 33°53' E 131°06'2 3.7
2018-Feb-15 17:30N 33°52' E 131°08'4 7.9
2018-Feb-15 17:00N 33°52' E 131°13'4 8.0
2018-Feb-15 16:30N 33°51' E 131°18'4 8.2
2018-Feb-15 16:00N 33°50' E 131°23'4 7.9
2018-Feb-15 15:30N 33°49' E 131°27'4 7.9
2018-Feb-15 15:00N 33°49' E 131°32'4 7.8
2018-Feb-15 14:30N 33°48' E 131°37'4 7.9
2018-Feb-15 14:00N 33°48' E 131°41'4 8.0
2018-Feb-15 13:30N 33°47' E 131°46'4 8.2
2018-Feb-15 13:00N 33°46' E 131°51'5 8.3
2018-Feb-15 12:26N 33°46' E 131°57'4 8.2
2018-Feb-15 11:59N 33°46' E 132°01'4 7.9
2018-Feb-15 11:28N 33°47' E 132°06'5 8.1
2018-Feb-15 10:53N 33°49' E 132°11'4 8.1
2018-Feb-15 10:27N 33°50' E 132°15'4 8.0
2018-Feb-15 09:58N 33°50' E 132°19'10 7.8
2018-Feb-15 08:37N 33°53' E 132°32'1 8.7
2018-Feb-15 08:29N 33°53' E 132°33'5 8.9
2018-Feb-15 07:59N 33°55' E 132°38'4 9.3
2018-Feb-15 07:30N 33°58' E 132°42'84 8.6
2018-Feb-14 21:40N 34°22' E 134°20'2 9.3
2018-Feb-14 21:30N 34°22' E 134°21'5 9.1
2018-Feb-14 21:00N 34°20' E 134°26'5 9.0
2018-Feb-14 20:30N 34°18' E 134°31'5 9.2
2018-Feb-14 20:01N 34°16' E 134°36'5 9.7
2018-Feb-14 19:30N 34°13' E 134°40'5 9.2
2018-Feb-14 19:00N 34°09' E 134°44'4 8.6
2018-Feb-14 18:30N 34°06' E 134°47'4 8.5
2018-Feb-14 18:00N 34°02' E 134°50'4 8.5
2018-Feb-14 17:30N 33°59' E 134°54'4 8.3
2018-Feb-14 17:00N 33°56' E 134°57'4 8.5
2018-Feb-14 16:30N 33°53' E 135°00'5 8.2
2018-Feb-14 15:57N 33°50' E 135°04'163 6.4
2018-Feb-13 14:41N 34°33' E 138°14'1 6.4
2018-Feb-13 14:28N 34°34' E 138°15'4 6.8
2018-Feb-13 13:55N 34°34' E 138°20'4 6.8
2018-Feb-13 13:20N 34°34' E 138°24'2 6.6
2018-Feb-13 13:00N 34°34' E 138°27'4 6.0
2018-Feb-13 12:16N 34°35' E 138°33'2 5.8
2018-Feb-13 12:00N 34°34' E 138°34'  

Dump ship's entire track history